Starlink 3343

operational
NORAD ID: 50822 Int'l Des: 2022-001 Owner: SPXS Country: US Constellation: starlink
LEOCIRCULAR

About Starlink 3343

Description loading...

Live Position

Loading 3D Globe...

Upcoming Passes

Altitude History

Altitude vs Time

uPlot chart will show altitude changes over time

Two-Line Element Set

1 50822U 22001V 25347.29991637 .00000839 00000-0 70807-4 0 9995
2 50822 53.2173 196.9378 0001575 90.2334 269.8838 15.08838613217368
Epoch: Dec 13, 2025 • Age: 16 hours

Current Status

Altitude 542.3 km
Velocity 7.60 km/s
Sub-Earth Point 39.02°N, 158.23°E
Launch Date Jan 6, 2022
Age 3.9 years
Type internet

Technical Details

Classification Payload
Mass 297.00 kg
Dry Mass 275.00 kg
Total Mass 297.00 kg
Length 0.20 m
Diameter 2.80 m
Span 9.00 m
Shape Box + pan
Manufacturer SPXS
Bus Type Starlink
Phase Status In Orbit
Owner/State SPXS/US

Large Constellations

Loading constellations...